Flag for Poland Weather past 2 weeks in Lódz, Poland

Now
35 °F

Low clouds.


Feels Like: 32 °F
Forecast: 34 / 50 °F
Wind: 3 mph from North

Location: Lodz

Current Time: Apr 18, 2015 at 7:45:23 AM

Latest Report: Apr 18, 2015 at 7:00 AM


Visibility: 13 mi

Pressure: 30.07 "Hg

Humidity: 86%

Dew point: 31 °F

Location of LódzLocation

Historic Weather in Lódz — Graph

°F

Lódz temperature yesterday

Maximum temperature yesterday: 52 °F (at 5:00 PM)
Minimum temperature yesterday: 31 °F (at 6:00 AM)
Average temperature yesterday: 43 °F

Past Weeks' High & Low Weather Summary

 TemperatureHumidityPressure
High69 °F (Apr 11, 4:00 PM)96% (Apr 7, 7:00 AM)30.56 "Hg (Apr 7, 7:00 AM)
Low27 °F (Apr 9, 6:00 AM)16% (Apr 9, 3:00 PM)29.75 "Hg (Apr 16, 3:00 AM)
Average45 °F64%30.14 "Hg
* Reported Apr 3 6:00 AM — Apr 18 6:00 AM, Lódz, Weather by CustomWeather, © 2015

Note: Actual official high and low records may vary slightly from our data, if they occured in-between our weather recording intervals... More about our weather records

Advertising

Lódz weather history for previous 24 hours

 ConditionsComfort  
Time TempWeatherWind HumidityBarometerVisibility
6:00 AM
Sat, Apr 18
33 °FOvercast.3 mph90%30.06 "Hg12 mi
4:00 AM33 °FClear.2 mph89%30.04 "Hg11 mi
3:00 AM34 °FClear.2 mph87%30.03 "Hg12 mi
2:00 AM35 °FClear.2 mph85%30.02 "Hg12 mi
1:00 AM38 °FPassing clouds.5 mph79%30.00 "Hg12 mi
12:00 AM38 °FPassing clouds.3 mph81%29.98 "Hg12 mi
10:00 PM
Fri, Apr 17
43 °FPassing clouds.6 mph67%29.95 "Hg12 mi
9:00 PM44 °FPassing clouds.3 mph61%29.93 "Hg12 mi
8:00 PM46 °FPassing clouds.7 mph55%29.90 "Hg12 mi
7:00 PM49 °FPartly sunny.3 mph38%29.87 "Hg12 mi
6:00 PM50 °FPartly sunny.3 mph37%29.86 "Hg12 mi
5:00 PM52 °FPartly sunny.7 mph36%29.85 "Hg12 mi
4:00 PM52 °FPartly sunny.7 mph38%29.86 "Hg12 mi
3:00 PM50 °FPartly sunny.7 mph43%29.87 "Hg12 mi
2:00 PM50 °FPartly sunny.7 mph43%29.88 "Hg12 mi
1:00 PM50 °FPartly sunny.6 mph43%29.88 "Hg12 mi
12:00 PM49 °FPartly sunny.6 mph45%29.88 "Hg12 mi
11:00 AM47 °FPartly sunny.6 mph51%29.89 "Hg12 mi
10:00 AM45 °FPartly sunny.6 mph61%29.89 "Hg12 mi
9:00 AM43 °FPartly sunny.5 mph73%29.90 "Hg12 mi
8:00 AM41 °FOvercast.3 mph75%29.90 "Hg12 mi
7:00 AM33 °FOvercast.No wind86%29.90 "Hg10 mi
Weather by CustomWeather, © 2015

See weather overviewHow to use our weather pages